[[{"header":{"parameterUnit":"m.s-1","parameterCategory":1,"la1":30.2991,"la2":30.254,"lo1":-89.0895,"lo2":-89.0444,"dy":0.0017,"dx":0.0017,"nx":28,"ny":28,"refTime":"2025-12-31T09:00:00:Z","depth":0,"parameterNumber":2,"parameterNumberName":"U-component_of_WINDS"},"data":[0,0,0,0,0,0,0,0,0,0,0,0,0,0,0,0,0,0,0,0,0,0,0,0,0,0,0,0,0,0,0,0,0,0,0,0,0,0,0,0,0,0,0,0,0,0,0,0,0,0,0,0,0,0,0,0,0,0,4.0079,4.0082,0,4.0302,4.0304,4.0307,4.0279,4.0276,4.0272,4.0269,4.05,4.0509,4.0519,0,0,0,0,0,0,0,0,0,0,0,0,0,3.9634,3.9642,4.0079,4.0082,4.0085,4.0301,4.0304,4.0307,4.028,4.0275,4.0271,4.0267,4.0497,4.0508,4.052,0,0,0,0,0,0,0,0,0,0,0,0,0,3.9839,3.9645,4.0079,4.0097,4.0101,4.0301,4.0304,4.0308,4.0281,4.0275,4.027,4.0265,4.0493,4.0507,4.0521,4.0718,0,0,4.0565,4.0571,0,0,0,0,0,0,0,0,3.9827,3.9855,4.0091,4.0096,4.0101,4.0257,4.0232,4.0446,4.0282,4.0213,4.0268,4.0262,4.0424,4.0443,4.0497,4.0729,4.0739,4.0566,4.0575,4.0581,4.0585,0,0,0,0,0,0,0,3.9813,3.9846,4.0167,4.0095,4.0101,4.0095,4.0118,4.0273,4.0346,4.0218,4.0217,4.0243,4.0425,4.0484,4.0502,4.0742,4.0566,4.0578,4.0587,4.0593,4.1147,4.1153,0,0,0,0,0,0,3.9794,3.9834,4.016,4.0174,3.9948,4.0108,4.0133,4.0212,4.0344,4.0359,4.0248,4.0241,4.0462,4.0486,4.0511,4.075,4.0581,4.0594,4.0603,4.1141,4.1149,4.1155,0,0,0,0,0,0,3.9784,3.9823,4.0151,4.0004,4.0045,4.0121,4.021,4.022,4.0278,4.0366,4.038,4.0293,4.0458,4.049,4.0667,4.0758,4.0601,4.0614,4.1134,4.1144,4.1152,4.123,0,0,0,0,0,0,3.9772,3.982,3.9895,4.0005,4.0053,4.0303,4.0215,4.0228,4.0302,4.0296,4.0413,4.0427,4.0457,4.0645,4.0681,4.0775,4.0625,4.1126,4.1138,4.1149,4.122,4.1241,4.1259,0,0,0,0,0,3.9756,3.9909,3.9899,3.9938,4.0148,4.0308,4.0335,4.0365,4.0309,4.0386,4.0443,4.0423,4.0742,4.0664,4.0703,4.0803,4.1121,4.1135,4.1148,4.1211,4.1237,4.1259,0,0,0,0,0,0,3.9808,3.9923,3.9914,4.0107,4.0197,4.0303,4.04,4.0391,4.0501,4.049,4.0524,4.055,4.0729,4.0783,4.0694,4.1001,4.0924,4.0946,4.0958,4.0983,4.1003,4.0986,4.0637,0,0,0,0,0,3.9841,3.9961,4.0056,4.0217,4.0263,4.0324,4.0395,4.041,4.0506,4.0544,4.0614,4.0709,4.0831,4.091,4.1027,4.1228,4.1253,4.1316,4.1335,4.1351,4.137,4.1481,4.151,4.1201,4.1201,4.12,0,0,3.9913,3.9991,4.0064,4.0229,4.0301,4.0425,4.0356,4.049,4.0583,4.0565,4.0735,4.079,4.0898,4.1088,4.1175,4.1139,4.1461,4.1369,4.138,4.1391,4.1498,4.1527,4.1553,4.121,4.1209,4.1207,0,0,4.0106,4.0177,4.0319,4.0392,4.0502,4.0541,4.0575,4.0683,4.0718,4.0889,4.0878,4.0989,4.1198,4.1275,4.1342,4.1565,4.1551,4.1602,4.1705,4.1812,4.1837,4.1858,4.1938,4.1966,4.1621,4.1621,4.1621,0,4.0181,4.0366,4.0393,4.0529,4.0602,4.059,4.0735,4.0805,4.0948,4.1,4.0957,4.1218,4.129,4.1498,4.1552,4.1607,4.1647,4.1589,4.1831,4.1853,4.1874,4.195,4.198,4.1626,4.1626,4.1625,4.1625,0,4.0453,4.0582,4.0683,4.082,4.0905,4.1044,4.1094,4.1176,4.1184,4.1228,4.1403,4.1489,4.1623,4.1674,4.1683,4.1883,4.1857,4.1823,4.1746,4.1908,4.198,4.201,4.1634,4.1632,4.1631,4.1629,0,0,4.0686,4.0835,4.0872,4.0934,4.1054,4.1155,4.1294,4.1424,4.1494,4.1593,4.1712,4.1888,4.1857,4.1932,4.195,4.2045,4.2216,4.1999,4.2002,4.2036,4.2443,4.2468,4.2501,4.2208,4.2213,4.2218,4.2433,0,4.0891,4.1136,4.1164,4.1383,4.1502,4.1493,4.1614,4.1702,4.1747,4.1856,4.1906,4.2031,4.1979,4.2025,4.2118,4.2175,4.2298,4.216,4.2319,4.2324,4.2292,4.2539,4.2567,4.2766,4.2462,4.2467,4.247,0,4.1163,4.1268,4.1498,4.1602,4.1653,4.1761,4.1883,4.1986,4.2086,4.2112,4.2197,4.2203,4.2347,4.2265,4.2466,4.2371,4.2438,4.2476,4.2485,4.2501,4.2407,4.2562,4.2831,4.286,4.2515,4.2512,4.2508,0,4.131,4.1509,4.1673,4.1726,4.1851,4.1927,4.1983,4.2077,4.2153,4.226,4.231,4.2432,4.2499,4.2595,4.2634,4.257,4.2833,4.2753,4.2859,4.2858,4.2915,4.2911,4.3198,4.2958,4.2957,4.2957,4.2956,0,4.1536,4.1677,4.174,4.1841,4.1999,4.2031,4.2187,4.224,4.2323,4.2435,4.2435,4.254,4.2585,4.2697,4.2729,4.2891,4.2921,4.2947,4.2954,4.2947,4.2944,4.2992,4.2979,4.2965,4.2963,4.2962,4.296,0,4.1727,4.1775,4.1953,4.2056,4.2085,4.2197,4.2286,4.2384,4.2427,4.2569,4.2604,4.2673,4.2805,4.2853,4.3015,4.3036,4.3223,4.3219,4.3189,4.3191,4.3294,4.3284,4.3622,4.3668,4.3397,4.34,4.3402,0,4.1869,4.1977,4.2091,4.2165,4.2223,4.2343,4.242,4.2456,4.2537,4.2658,4.2742,4.2873,4.2979,4.3192,4.3257,4.3381,4.3379,4.3489,4.3398,4.3388,4.3381,4.3374,4.3385,4.3506,4.3509,4.3511,4.3513,0,4.2115,4.2133,4.2244,4.2363,4.2455,4.2552,4.2645,4.2706,4.2756,4.2847,4.2981,4.3064,4.3228,4.3359,4.3485,4.3544,4.3538,4.3541,4.3572,4.3567,4.3545,4.3558,4.3236,4.3533,4.3531,4.353,4.3529,4.3528,4.2286,4.2382,4.2477,4.2601,4.2674,4.2761,4.2858,4.2913,4.3026,4.3161,4.3176,4.332,4.3417,4.3586,4.3651,4.3765,4.3736,4.3781,4.3792,4.3803,4.381,4.3527,4.3789,4.3788,4.3788,4.3787,4.3787,0,4.2532,4.2593,4.2706,4.2836,4.2934,4.2917,4.302,4.3103,4.3229,4.332,4.3425,4.3579,4.3706,4.3781,4.3908,4.3985,4.3986,4.4018,4.4013,4.4026,4.383,4.379,4.4015,4.4015,4.4015,4.4015,4.4015,4.4015,4.2672,4.2833,4.2862,4.306,4.312,4.3261,4.3321,4.3401,4.3474,4.3646,4.375,4.3798,4.3883,4.4016,4.4132,4.415,4.4198,4.4232,4.4249,4.4064,4.404,4.4018,4.3981,4.4242,4.4243,4.4436,4.4438,4.4439]},{"header":{"parameterUnit":"m.s-1","parameterCategory":1,"la1":30.2991,"la2":30.254,"lo1":-89.0895,"lo2":-89.0444,"dy":0.0017,"dx":0.0017,"nx":28,"ny":28,"refTime":"2025-12-31T09:00:00:Z","depth":0,"parameterNumber":3,"parameterNumberName":"V-component_of_WINDS"},"data":[0,0,0,0,0,0,0,0,0,0,0,0,0,0,0,0,0,0,0,0,0,0,0,0,0,0,0,0,0,0,0,0,0,0,0,0,0,0,0,0,0,0,0,0,0,0,0,0,0,0,0,0,0,0,0,0,0,0,-1.6669,-1.6671,0,-1.6782,-1.6783,-1.6784,-1.6804,-1.6803,-1.6802,-1.6801,-1.6917,-1.6921,-1.6925,0,0,0,0,0,0,0,0,0,0,0,0,0,-1.6474,-1.6477,-1.6669,-1.6671,-1.6672,-1.6782,-1.6783,-1.6785,-1.6804,-1.6803,-1.6801,-1.68,-1.6916,-1.6921,-1.6925,0,0,0,0,0,0,0,0,0,0,0,0,0,-1.657,-1.6479,-1.6669,-1.6695,-1.6698,-1.6781,-1.6783,-1.6785,-1.6804,-1.6803,-1.6801,-1.68,-1.6914,-1.692,-1.6926,-1.6992,0,0,-1.6944,-1.6947,0,0,0,0,0,0,0,0,-1.6564,-1.6577,-1.669,-1.6693,-1.6697,-1.6777,-1.6757,-1.6854,-1.6804,-1.6764,-1.6801,-1.6799,-1.6872,-1.6881,-1.6906,-1.6997,-1.7002,-1.6945,-1.6949,-1.6951,-1.6953,0,0,0,0,0,0,0,-1.6558,-1.6572,-1.6714,-1.6691,-1.6696,-1.6702,-1.6714,-1.6775,-1.6825,-1.6767,-1.6769,-1.6782,-1.6874,-1.69,-1.6908,-1.7004,-1.6945,-1.695,-1.6954,-1.6956,-1.7156,-1.7158,0,0,0,0,0,0,-1.6546,-1.6567,-1.671,-1.6717,-1.6626,-1.6706,-1.672,-1.6753,-1.6824,-1.6833,-1.6783,-1.6782,-1.689,-1.6901,-1.6913,-1.6994,-1.6951,-1.6957,-1.696,-1.7154,-1.7156,-1.7158,0,0,0,0,0,0,-1.6542,-1.6559,-1.6706,-1.6642,-1.6662,-1.6711,-1.6748,-1.6756,-1.6782,-1.6836,-1.6845,-1.68,-1.689,-1.6904,-1.6972,-1.6999,-1.6959,-1.6965,-1.7152,-1.7155,-1.7157,-1.7158,0,0,0,0,0,0,-1.6536,-1.6557,-1.6582,-1.6643,-1.6665,-1.6762,-1.675,-1.6759,-1.6792,-1.6792,-1.6855,-1.6864,-1.689,-1.6963,-1.6978,-1.7006,-1.6969,-1.715,-1.7153,-1.7156,-1.7156,-1.716,-1.7164,0,0,0,0,0,-1.6529,-1.6578,-1.6583,-1.66,-1.6697,-1.6764,-1.6777,-1.6805,-1.6794,-1.682,-1.6855,-1.6862,-1.6994,-1.697,-1.6987,-1.7017,-1.7149,-1.7152,-1.7156,-1.7154,-1.716,-1.7164,0,0,0,0,0,0,-1.6519,-1.6586,-1.6593,-1.6662,-1.6707,-1.6767,-1.68,-1.681,-1.6859,-1.6857,-1.6891,-1.6905,-1.6971,-1.7001,-1.6974,-1.7085,-1.707,-1.7078,-1.7063,-1.7068,-1.7073,-1.7064,-1.6974,0,0,0,0,0,-1.6524,-1.6573,-1.6629,-1.6685,-1.6708,-1.675,-1.678,-1.6799,-1.6847,-1.6866,-1.6906,-1.6953,-1.7005,-1.7038,-1.7089,-1.7161,-1.7175,-1.719,-1.7194,-1.7198,-1.7203,-1.7244,-1.7252,-1.7171,-1.7171,-1.7171,0,0,-1.6537,-1.658,-1.6608,-1.6684,-1.6721,-1.6771,-1.6766,-1.6819,-1.6857,-1.6874,-1.694,-1.6972,-1.7026,-1.7096,-1.7129,-1.7123,-1.7229,-1.7203,-1.7205,-1.7209,-1.7249,-1.7257,-1.7263,-1.7174,-1.7173,-1.7173,0,0,-1.6585,-1.6622,-1.6673,-1.671,-1.6766,-1.6795,-1.6807,-1.6866,-1.6887,-1.6954,-1.6968,-1.7014,-1.7103,-1.7142,-1.7173,-1.7238,-1.7246,-1.7253,-1.7275,-1.7314,-1.7321,-1.7327,-1.735,-1.7358,-1.7259,-1.7259,-1.7259,0,-1.6593,-1.6669,-1.6698,-1.6751,-1.6784,-1.6803,-1.6855,-1.689,-1.696,-1.6983,-1.6975,-1.7088,-1.7126,-1.7206,-1.7222,-1.7246,-1.7262,-1.7246,-1.7317,-1.7323,-1.7329,-1.7352,-1.7361,-1.726,-1.726,-1.726,-1.726,0,-1.6677,-1.6729,-1.6763,-1.683,-1.6868,-1.692,-1.6958,-1.6993,-1.7008,-1.7037,-1.7106,-1.7153,-1.7214,-1.7234,-1.725,-1.7317,-1.7312,-1.731,-1.7296,-1.7337,-1.7359,-1.7368,-1.7261,-1.726,-1.726,-1.726,0,0,-1.672,-1.6803,-1.6815,-1.6846,-1.691,-1.6951,-1.7005,-1.7065,-1.7094,-1.7142,-1.7188,-1.7264,-1.7264,-1.7299,-1.7319,-1.7354,-1.7403,-1.7349,-1.7351,-1.7357,-1.748,-1.748,-1.749,-1.7409,-1.7411,-1.7412,-1.7475,0,-1.6776,-1.6871,-1.69,-1.698,-1.7029,-1.7048,-1.7095,-1.714,-1.7169,-1.7216,-1.7248,-1.7301,-1.7296,-1.7318,-1.7353,-1.7389,-1.7428,-1.7385,-1.7453,-1.7455,-1.7438,-1.7501,-1.7501,-1.7559,-1.7484,-1.7486,-1.7487,0,-1.6853,-1.6902,-1.6987,-1.7046,-1.7067,-1.7109,-1.7166,-1.721,-1.7262,-1.7281,-1.7321,-1.7339,-1.7397,-1.738,-1.7461,-1.7431,-1.7461,-1.7483,-1.7486,-1.7493,-1.7473,-1.751,-1.7578,-1.7586,-1.75,-1.7499,-1.7498,0,-1.6876,-1.6964,-1.7026,-1.7052,-1.7122,-1.7151,-1.7181,-1.7232,-1.7266,-1.7316,-1.7339,-1.7396,-1.7427,-1.7471,-1.7504,-1.7489,-1.7583,-1.7568,-1.7601,-1.76,-1.7619,-1.7617,-1.7692,-1.7638,-1.7638,-1.7638,-1.7638,0,-1.6935,-1.6986,-1.7038,-1.7076,-1.7135,-1.7168,-1.7225,-1.7257,-1.7302,-1.7347,-1.7368,-1.741,-1.7452,-1.75,-1.7527,-1.759,-1.7604,-1.7621,-1.7628,-1.7619,-1.7617,-1.7639,-1.7636,-1.764,-1.764,-1.7639,-1.7639,0,-1.6971,-1.7007,-1.7076,-1.7137,-1.7153,-1.7194,-1.7246,-1.7285,-1.7315,-1.7373,-1.7388,-1.7436,-1.7494,-1.7532,-1.7606,-1.7624,-1.7693,-1.7699,-1.7675,-1.7678,-1.7709,-1.7705,-1.78,-1.7815,-1.7751,-1.7751,-1.7752,0,-1.7006,-1.7045,-1.711,-1.7142,-1.7173,-1.7224,-1.7259,-1.7294,-1.7329,-1.7392,-1.7423,-1.7483,-1.7532,-1.7624,-1.7666,-1.7724,-1.7731,-1.776,-1.7739,-1.773,-1.7731,-1.7728,-1.7733,-1.7763,-1.7764,-1.7764,-1.7764,0,-1.7064,-1.708,-1.7129,-1.7186,-1.7227,-1.7273,-1.7319,-1.7344,-1.7387,-1.7427,-1.7486,-1.7524,-1.7601,-1.766,-1.7721,-1.7754,-1.7767,-1.7771,-1.7781,-1.7773,-1.7758,-1.7767,-1.7684,-1.7768,-1.7768,-1.7767,-1.7767,-1.7767,-1.71,-1.7137,-1.7188,-1.7243,-1.7282,-1.7324,-1.7364,-1.7399,-1.7449,-1.7513,-1.7531,-1.7594,-1.7646,-1.7729,-1.7763,-1.7813,-1.781,-1.7825,-1.7829,-1.7832,-1.7832,-1.775,-1.7825,-1.7825,-1.7825,-1.7825,-1.7825,0,-1.716,-1.7194,-1.7244,-1.7308,-1.7351,-1.7359,-1.7411,-1.7447,-1.7501,-1.7549,-1.7597,-1.7666,-1.7724,-1.7771,-1.7831,-1.7862,-1.7869,-1.7876,-1.7874,-1.7882,-1.7832,-1.7817,-1.7869,-1.7869,-1.7869,-1.7869,-1.7869,-1.7869,-1.7196,-1.7258,-1.7281,-1.7363,-1.7398,-1.7458,-1.7487,-1.7527,-1.7565,-1.7641,-1.7689,-1.7719,-1.7767,-1.7831,-1.7884,-1.7897,-1.7918,-1.7924,-1.7938,-1.789,-1.7885,-1.788,-1.7866,-1.7928,-1.7928,-1.7983,-1.7984,-1.7984]}]]